Location: Prague
(50.0830°N, 14.4670°E)
Time: 09:45:57
(UTC+01:00)

Oscar 11 - Pass Details

Date: 05 December 2021
Orbit: 611 x 625 km, 97.6° (Epoch: 26 January)

Event Time Altitude Azimuth Distance (km) Brightness Sun altitude
Rises 04:35:16 0° 24° (NNE) 2,919 10.8 -29.3°
Reaches altitude 10° 04:37:53 10° 39° (NE) 2,004 10.1 -28.8°
Maximum altitude 04:41:21 23° 92° (E) 1,336 9.4 -28.3°
Drops below altitude 10° 04:44:48 10° 145° (SE) 1,984 10.1 -27.7°
Sets 04:47:21 0° 160° (SSE) 2,882 10.8 -27.3°
